GW0019 Weather Reports


time (UTC)temp
F
wind
direction
speed
knots
gust
knots
rain 1hr
in
rain 24hr
in
rain mn
in
humidity
%
barometer
mb
20260503225637 76 249 7.0 14.8 0.00 0.00 0.00 75 1017.6
20260503225137 76 222 11.3 14.8 0.00 0.00 0.00 74 1017.5
20260503224634 75 207 6.1 12.2 0.00 0.00 0.00 74 1017.5
20260503224132 75 203 9.6 13.9 0.00 0.00 0.00 74 1017.7
20260503223630 76 228 7.8 11.3 0.00 0.00 0.00 74 1017.8
20260503223126 75 200 6.1 12.2 0.00 0.00 0.00 74 1017.8
20260503222623 76 165 3.5 11.3 0.00 0.00 0.00 74 1017.8
20260503222121 75 205 9.6 15.6 0.00 0.00 0.00 74 1017.8
20260503221619 76 198 9.6 13.9 0.00 0.00 0.00 74 1018.0
20260503221116 75 207 8.7 14.8 0.00 0.00 0.00 74 1018.0
20260503220613 75 214 8.7 13.0 0.00 0.00 0.00 74 1018.0
20260503220110 75 210 8.7 15.6 0.00 0.00 0.00 74 1018.2
20260503215607 75 146 1.7 10.4 0.00 0.00 0.00 74 1018.1
20260503215103 75 180 5.2 7.8 0.00 0.00 0.00 74 1018.2
20260503214602 75 206 0.9 11.3 0.00 0.00 0.00 74 1018.4
20260503214058 75 225 9.6 13.0 0.00 0.00 0.00 74 1018.6
20260503213557 75 231 11.3 12.2 0.00 0.00 0.00 74 1018.4
20260503213053 75 220 0.0 13.9 0.00 0.00 0.00 74 1018.3
20260503212550 75 209 2.6 10.4 0.00 0.00 0.00 74 1018.5
20260503212047 74 234 8.7 19.1 0.00 0.00 0.00 74 1018.4
20260503211545 75 250 6.1 11.3 0.00 0.00 0.00 74 1018.4
20260503211040 75 197 1.7 13.0 0.00 0.00 0.00 74 1018.8
20260503210537 74 224 7.8 11.3 0.00 0.00 0.00 74 1018.8
20260503210033 74 249 7.8 13.9 0.00 0.00 0.00 74 1018.7
20260503205530 74 192 0.0 15.6 0.00 0.00 0.00 74 1019.1
20260503205026 73 196 3.5 17.4 0.00 0.00 0.00 74 1019.2
20260503204523 74 294 2.6 13.9 0.00 0.00 0.00 74 1019.3
20260503204020 73 215 7.8 15.6 0.00 0.00 0.00 74 1019.5
20260503203517 73 194 3.5 11.3 0.00 0.00 0.00 74 1019.5
20260503203014 73 206 6.1 12.2 0.00 0.00 0.00 74 1019.8
20260503202512 73 253 2.6 13.0 0.00 0.00 0.00 74 1019.9
20260503202010 73 206 2.6 10.4 0.00 0.00 0.00 74 1019.9
20260503201508 73 264 6.1 17.4 0.00 0.00 0.00 74 1020.4
20260503201005 73 210 8.7 17.4 0.00 0.00 0.00 74 1020.4
20260503200501 73 227 9.6 12.2 0.00 0.00 0.00 74 1020.5
20260503195957 73 223 7.0 15.6 0.00 0.00 0.00 74 1020.3
20260503195455 73 235 5.2 11.3 0.00 0.00 0.00 74 1020.5
20260503194951 73 240 4.3 10.4 0.00 0.00 0.00 74 1020.5
20260503194449 71 244 6.1 11.3 0.00 0.00 0.00 74 1020.7
20260503193944 71 221 6.1 20.0 0.00 0.00 0.00 74 1020.7
20260503193439 71 231 4.3 12.2 0.00 0.00 0.00 74 1020.8
20260503192935 71 238 10.4 20.9 0.00 0.00 0.00 74 1020.9
20260503192432 71 277 4.3 17.4 0.00 0.00 0.00 74 1021.1
20260503191927 71 232 7.8 13.0 0.00 0.00 0.00 74 1021.1
20260503191425 71 256 9.6 13.9 0.00 0.00 0.00 74 1021.2
20260503190921 71 215 6.1 13.0 0.00 0.00 0.00 74 1021.3
20260503190419 71 243 2.6 10.4 0.00 0.00 0.00 74 1021.4
20260503185915 71 205 8.7 11.3 0.00 0.00 0.00 74 1021.5
20260503185412 71 257 3.5 8.7 0.00 0.00 0.00 74 1021.6
20260503184911 70 210 10.4 14.8 0.00 0.00 0.00 74 1021.4
20260503184408 70 235 4.3 11.3 0.00 0.00 0.00 74 1021.5
20260503183904 70 229 5.2 11.3 0.00 0.00 0.00 74 1021.7
20260503183401 69 229 2.6 11.3 0.00 0.00 0.00 74 1022.0
20260503182858 70 192 5.2 9.6 0.00 0.00 0.00 74 1021.6
20260503182357 69 202 5.2 8.7 0.00 0.00 0.00 74 1022.0
20260503181853 69 226 6.1 10.4 0.00 0.00 0.00 74 1021.9
20260503181351 69 157 4.3 12.2 0.00 0.00 0.00 74 1022.2
20260503180847 70 244 5.2 9.6 0.00 0.00 0.00 74 1022.0
20260503180345 69 219 5.2 7.8 0.00 0.00 0.00 74 1022.4
20260503175842 69 220 9.6 15.6 0.00 0.00 0.00 74 1022.5
20260503175340 69 225 5.2 10.4 0.00 0.00 0.00 74 1022.6
20260503174835 68 222 5.2 13.0 0.00 0.00 0.00 74 1022.5
20260503174333 68 225 14.8 14.8 0.00 0.00 0.00 73 1022.6
20260503173828 67 238 7.0 10.4 0.00 0.00 0.00 73 1022.8
20260503173325 67 201 7.0 10.4 0.00 0.00 0.00 73 1022.7
20260503172822 68 270 0.0 11.3 0.00 0.00 0.00 73 1022.9
20260503172320 68 220 10.4 11.3 0.00 0.00 0.00 73 1023.0
20260503171815 66 207 6.1 13.0 0.00 0.00 0.00 73 1023.0
20260503171312 67 190 1.7 9.6 0.00 0.00 0.00 73 1023.3
20260503170809 65 201 4.3 9.6 0.00 0.00 0.00 73 1023.4
20260503170306 66 231 5.2 12.2 0.00 0.00 0.00 73 1023.4
20260503150658 60 198 2.6 15.6 0.00 0.00 0.00 73 1024.6
20260503150154 59 202 2.6 16.5 0.00 0.00 0.00 73 1024.5
20260503140119 55 211 4.3 10.4 0.00 0.00 0.00 72 1024.8
20260503131048 51 194 7.0 12.2 0.00 0.00 0.00 72 1025.0
20260503130545 51 217 2.6 9.6 0.00 0.00 0.00 72 1024.9
20260503110436 45 164 2.6 6.1 0.00 0.00 0.00 71 1023.8
20260503090321 46 153 2.6 3.5 0.00 0.00 0.00 71 1024.6
20260503081248 46 156 0.0 4.3 0.00 0.00 0.00 71 1024.7
20260503080744 46 133 2.6 3.5 0.00 0.00 0.00 71 1024.8
20260503080242 46 180 1.7 3.5 0.00 0.00 0.00 71 1024.7
20260503072718 43 124 4.3 6.1 0.00 0.00 0.00 71 1024.6
20260503072215 44 110 3.5 4.3 0.00 0.00 0.00 71 1024.6
20260503071712 43 277 0.0 1.7 0.00 0.00 0.00 71 1024.7
20260503071209 43 287 0.0 1.7 0.00 0.00 0.00 71 1024.6
20260503070705 43 239 2.6 2.6 0.00 0.00 0.00 71 1024.7
20260503070204 43 233 0.0 2.6 0.00 0.00 0.00 71 1024.7
20260503060127 45 252 1.7 1.7 0.00 0.00 0.00 71 1024.8
20260503055119 43 259 2.6 2.6 0.00 0.00 0.00 71 1025.0
20260503054615 44 285 0.9 0.9 0.00 0.00 0.00 71 1024.8
20260503054112 44 254 0.0 0.0 0.00 0.00 0.00 71 1025.0
20260503053610 46 254 0.0 0.9 0.00 0.00 0.00 71 1024.9
20260503053108 47 195 0.0 0.0 0.00 0.00 0.00 71 1025.0
20260503052604 46 192 0.9 2.6 0.00 0.00 0.00 71 1024.6
20260503052101 46 197 1.7 1.7 0.00 0.00 0.00 71 1024.9
20260503051556 46 192 0.9 1.7 0.00 0.00 0.00 71 1024.6
20260503051054 47 194 0.0 0.9 0.00 0.00 0.00 71 1024.8
20260503050550 47 188 0.0 0.9 0.00 0.00 0.00 71 1024.6
20260503050047 47 188 0.0 0.0 0.00 0.00 0.00 71 1024.6
20260503045544 47 188 0.0 0.9 0.00 0.00 0.00 71 1024.5
20260503045041 48 240 0.0 0.9 0.00 0.00 0.00 71 1024.8
20260503044538 48 243 0.0 0.0 0.00 0.00 0.00 71 1024.7
20260503044036 49 254 0.0 1.7 0.00 0.00 0.00 71 1024.5
20260503043532 49 237 0.9 1.7 0.00 0.00 0.00 71 1024.5
20260503043028 48 237 0.9 1.7 0.00 0.00 0.00 71 1024.5
20260503042526 48 263 0.0 1.7 0.00 0.00 0.00 71 1024.4
20260503042021 49 270 0.0 1.7 0.00 0.00 0.00 71 1024.6
20260503041519 48 303 0.0 0.9 0.00 0.00 0.00 71 1024.4
20260503041016 47 75 0.0 0.0 0.00 0.00 0.00 71 1024.5
20260503040514 47 99 0.0 0.9 0.00 0.00 0.00 71 1024.3
20260503040011 48 257 0.9 1.7 0.00 0.00 0.00 71 1024.5
20260503035507 48 234 0.0 0.9 0.00 0.00 0.00 71 1024.5
20260503035005 49 15 0.0 0.0 0.00 0.00 0.00 71 1024.3
20260503034502 49 15 0.0 0.0 0.00 0.00 0.00 71 1024.4
20260503033959 50 8 0.0 0.9 0.00 0.00 0.00 72 1024.6
20260503033456 49 279 0.0 0.0 0.00 0.00 0.00 71 1024.5
20260503032954 50 279 0.0 0.0 0.00 0.00 0.00 72 1024.5
20260503032452 50 279 0.0 0.0 0.00 0.00 0.00 72 1024.5
20260503031950 51 279 0.0 0.0 0.00 0.00 0.00 72 1024.5
20260503031448 51 279 0.0 0.0 0.00 0.00 0.00 72 1024.4
20260503030944 51 279 0.0 0.0 0.00 0.00 0.00 72 1024.4
20260503030440 51 279 0.0 0.0 0.00 0.00 0.00 72 1024.4
20260503025937 52 283 0.0 0.9 0.00 0.00 0.00 72 1024.2
20260503025434 51 285 0.9 0.9 0.00 0.00 0.00 72 1024.3
20260503024932 52 279 0.0 1.7 0.00 0.00 0.00 72 1024.3
20260503024428 52 345 0.0 1.7 0.00 0.00 0.00 72 1024.1
20260503023925 53 7 0.0 0.9 0.00 0.00 0.00 72 1024.1
20260503023422 53 8 0.0 0.9 0.00 0.00 0.00 72 1024.1
20260503022919 53 6 0.9 1.7 0.00 0.00 0.00 72 1023.9
20260503022414 53 20 0.0 1.7 0.00 0.00 0.00 72 1024.1
20260503021910 54 349 0.0 3.5 0.00 0.00 0.00 72 1024.0
20260503021406 54 29 0.0 1.7 0.00 0.00 0.00 72 1024.0
20260503020904 54 26 0.0 1.7 0.00 0.00 0.00 72 1023.7
20260503020402 53 0 0.0 1.7 0.00 0.00 0.00 72 1024.0
20260503015857 53 246 0.0 1.7 0.00 0.00 0.00 72 1023.7
20260503015355 54 261 0.0 0.0 0.00 0.00 0.00 72 1023.6
20260503014850 55 11 0.0 0.9 0.00 0.00 0.00 72 1023.6
20260503014348 56 352 0.0 0.9 0.00 0.00 0.00 72 1023.6
20260503013846 56 7 0.9 1.7 0.00 0.00 0.00 72 1023.6
20260503013343 56 8 0.0 1.7 0.00 0.00 0.00 72 1023.7
20260503012839 56 11 0.9 1.7 0.00 0.00 0.00 72 1023.4
20260503012337 57 0 1.7 2.6 0.00 0.00 0.00 72 1023.4
20260503011834 57 18 0.9 2.6 0.00 0.00 0.00 72 1023.4
20260503011331 57 14 0.0 1.7 0.00 0.00 0.00 72 1023.3
20260503010827 58 45 1.7 2.6 0.00 0.00 0.00 72 1023.3
20260503010325 58 40 1.7 2.6 0.00 0.00 0.00 72 1023.1
20260503005821 59 350 0.0 2.6 0.00 0.00 0.00 72 1023.3
20260503005319 59 334 0.9 2.6 0.00 0.00 0.00 72 1023.3
20260503004815 59 21 0.0 3.5 0.00 0.00 0.00 73 1023.5
20260503004313 60 7 2.6 3.5 0.00 0.00 0.00 73 1023.2
20260503003810 60 60 0.0 4.3 0.00 0.00 0.00 73 1023.3
20260503003307 61 47 2.6 3.5 0.00 0.00 0.00 73 1023.3
20260503002804 61 20 2.6 4.3 0.00 0.00 0.00 73 1023.2
20260503002301 61 320 0.0 3.5 0.00 0.00 0.00 73 1023.2
20260503001757 62 315 2.6 3.5 0.00 0.00 0.00 73 1023.3
20260503001253 61 50 2.6 7.0 0.00 0.00 0.00 73 1023.0
20260503000751 62 43 4.3 6.1 0.00 0.00 0.00 73 1023.0
20260503000248 62 53 3.5 6.1 0.00 0.00 0.00 73 1023.0
20260502235745 62 72 1.7 7.0 0.00 0.00 0.00 73 1023.0
20260502235243 62 52 3.5 7.8 0.00 0.00 0.00 73 1023.2
20260502234739 62 35 5.2 6.1 0.00 0.00 0.00 73 1023.2
20260502234236 63 320 2.6 4.3 0.00 0.00 0.00 73 1023.0
20260502233732 62 331 4.3 7.8 0.00 0.00 0.00 73 1023.0
20260502233229 62 330 2.6 7.8 0.00 0.00 0.00 73 1023.0
20260502232725 63 294 5.2 10.4 0.00 0.00 0.00 73 1023.0
20260502232222 63 2 3.5 9.6 0.00 0.00 0.00 73 1023.2
20260502231719 62 53 2.6 8.7 0.00 0.00 0.00 73 1023.0
20260502231217 62 338 5.2 13.0 0.00 0.00 0.00 73 1023.1
20260502230715 63 3 4.3 8.7 0.00 0.00 0.00 73 1023.1
20260502230213 63 6 5.2 6.1 0.00 0.00 0.00 73 1023.0
20260502225708 63 36 4.3 11.3 0.00 0.00 0.00 73 1023.0